GW5612 Weather Reports


time (UTC)temp
F
wind
direction
speed
knots
gust
knots
rain 1hr
in
rain 24hr
in
rain mn
in
humidity
%
barometer
mb
20260506222003 69 102 0.0 0.9 0.00 0.00 0.00 65 1007.2
20260506221508 69 116 0.0 1.7 0.00 0.00 0.00 65 1007.4
20260506221004 69 145 0.0 2.6 0.00 0.00 0.00 65 1007.5
20260506220504 69 122 0.0 2.6 0.00 0.00 0.00 62 1007.5
20260506220008 68 132 0.0 4.3 0.00 0.00 0.00 64 1007.5
20260506215504 68 131 0.0 4.3 0.00 0.00 0.00 63 1007.4
20260506215006 68 103 0.0 4.3 0.00 0.00 0.00 60 1007.4
20260506214509 68 139 0.0 3.5 0.00 0.00 0.00 62 1007.4
20260506214004 68 117 0.0 6.1 0.00 0.00 0.00 61 1007.4
20260506213510 68 114 0.0 6.1 0.00 0.00 0.00 61 1007.2
20260506213010 67 118 0.0 1.7 0.00 0.00 0.00 57 1007.2
20260506212505 67 105 0.0 0.0 0.00 0.00 0.00 56 1007.1
20260506212007 67 122 0.0 6.1 0.00 0.00 0.00 56 1007.2
20260506211510 66 107 0.0 6.1 0.00 0.00 0.00 56 1007.2
20260506211004 66 120 0.0 4.3 0.00 0.00 0.00 56 1007.2
20260506210507 66 105 0.0 4.3 0.00 0.00 0.00 55 1007.2
20260506210022 66 113 0.0 2.6 0.00 0.00 0.00 57 1007.2
20260506205504 66 117 0.0 2.6 0.00 0.00 0.00 57 1007.3
20260506205003 66 105 0.0 4.3 0.00 0.00 0.00 58 1007.2
20260506204508 67 110 0.0 8.7 0.00 0.00 0.00 60 1007.2
20260506204004 67 134 0.9 8.7 0.00 0.00 0.00 60 1007.2
20260506203509 67 108 0.0 8.7 0.00 0.00 0.00 59 1007.1
20260506203011 67 137 0.0 8.7 0.00 0.00 0.00 56 1007.1
20260506202504 66 245 0.9 7.8 0.00 0.00 0.00 54 1007.0
20260506202007 65 126 0.0 7.8 0.00 0.00 0.00 51 1007.1
20260506201516 65 115 0.0 7.8 0.00 0.00 0.00 51 1007.1
20260506201004 65 105 0.0 7.8 0.00 0.00 0.00 50 1007.1
20260506200504 65 155 0.0 7.0 0.00 0.00 0.00 52 1007.3
20260506200013 65 122 0.0 9.6 0.00 0.00 0.00 54 1007.3
20260506195504 65 135 0.9 9.6 0.00 0.00 0.00 53 1007.3
20260506195005 65 131 0.9 8.7 0.00 0.00 0.00 49 1007.4
20260506194511 65 80 0.0 6.1 0.00 0.00 0.00 46 1007.3
20260506194007 65 132 0.0 1.7 0.00 0.00 0.00 46 1007.5
20260506193504 64 120 0.0 5.2 0.00 0.00 0.00 41 1007.5
20260506193021 64 139 0.0 5.2 0.00 0.00 0.00 39 1007.5
20260506192504 64 123 0.0 3.5 0.00 0.00 0.00 38 1007.6
20260506192006 63 104 0.0 4.3 0.00 0.00 0.00 33 1007.6
20260506191514 63 96 0.0 8.7 0.00 0.00 0.00 32 1007.8
20260506191003 63 102 0.0 8.7 0.00 0.00 0.00 25 1007.8
20260506190509 63 136 0.0 8.7 0.00 0.00 0.00 20 1007.8
20260506190013 62 91 0.0 8.7 0.00 0.00 0.00 20 1007.8
20260506185507 62 117 0.0 9.6 0.00 0.00 0.00 18 1007.8
20260506185004 62 96 0.0 9.6 0.00 0.00 0.00 22 1008.0
20260506184515 63 60 0.9 9.6 0.00 0.00 0.00 25 1008.1
20260506184005 63 121 0.0 8.7 0.00 0.00 0.00 29 1008.0
20260506183504 63 103 1.7 8.7 0.00 0.00 0.00 30 1008.1
20260506183013 63 90 0.0 9.6 0.00 0.00 0.00 32 1008.0
20260506182508 63 101 0.0 9.6 0.00 0.00 0.00 30 1007.9
20260506182006 63 113 0.0 5.2 0.00 0.00 0.00 29 1007.9
20260506181511 62 91 0.0 8.7 0.00 0.00 0.00 30 1008.0
20260506181006 62 127 0.0 11.3 0.00 0.00 0.00 29 1008.1
20260506180504 62 114 0.0 11.3 0.00 0.00 0.00 31 1008.1
20260506180003 63 120 0.0 11.3 0.00 0.00 0.00 32 1008.2
20260506175502 63 72 1.7 11.3 0.00 0.00 0.00 31 1008.3
20260506175007 63 165 0.9 9.6 0.00 0.00 0.00 30 1008.2
20260506174503 63 105 0.0 8.7 0.00 0.00 0.00 29 1008.3
20260506174003 62 37 0.0 11.3 0.00 0.00 0.00 24 1008.3
20260506173506 62 112 0.0 11.3 0.00 0.00 0.00 23 1008.2
20260506173004 62 119 0.0 7.0 0.00 0.00 0.00 21 1008.3
20260506172504 62 117 0.0 10.4 0.00 0.00 0.00 21 1008.5
20260506172004 62 121 0.0 10.4 0.00 0.00 0.00 22 1008.6
20260506171507 63 113 0.0 7.0 0.00 0.00 0.00 19 1008.6
20260506171008 63 129 0.0 6.1 0.00 0.00 0.00 20 1008.5
20260506170505 63 79 0.0 13.9 0.00 0.00 0.00 22 1008.5
20260506170008 63 137 0.0 13.9 0.00 0.00 0.00 23 1008.5
20260506165504 63 110 0.9 15.6 0.00 0.00 0.00 16 1008.5
20260506165005 63 123 0.9 15.6 0.00 0.00 0.00 16 1008.3
20260506164513 63 127 2.6 13.9 0.00 0.00 0.00 10 1008.6
20260506164003 63 103 1.7 13.0 0.00 0.00 0.00 8 1008.4
20260506163503 62 146 0.0 2.6 0.00 0.00 0.00 4 1008.6
20260506163009 62 117 0.0 2.6 0.00 0.00 0.00 3 1008.4
20260506162508 62 122 0.0 7.8 0.00 0.00 0.00 4 1008.5
20260506162003 62 120 0.0 7.8 0.00 0.00 0.00 5 1008.9
20260506161505 62 122 0.0 2.6 0.00 0.00 0.00 6 1009.2
20260506161003 62 126 0.0 1.7 0.00 0.00 0.00 7 1009.5
20260506160504 62 124 0.0 6.1 0.00 0.00 0.00 8 1009.5
20260506160009 62 122 0.0 6.1 0.00 0.00 0.00 9 1009.7
20260506155503 62 74 0.0 0.9 0.00 0.00 0.00 11 1009.7
20260506155003 62 122 0.0 0.9 0.00 0.00 0.00 14 1009.9
20260506154510 62 96 0.0 0.0 0.00 0.00 0.00 16 1009.8
20260506154004 62 118 0.0 0.0 0.00 0.00 0.00 20 1009.7
20260506153504 62 98 0.0 1.7 0.00 0.00 0.00 22 1009.6
20260506153003 63 120 0.0 1.7 0.00 0.00 0.00 27 1009.6
20260506152503 63 107 0.0 0.0 0.00 0.00 0.00 27 1009.8
20260506152003 63 105 0.0 2.6 0.00 0.00 0.00 29 1009.8
20260506151504 63 91 0.0 4.3 0.00 0.00 0.00 30 1009.7
20260506151003 63 120 0.0 4.3 0.00 0.00 0.00 30 1009.7
20260506150504 63 127 0.0 0.0 0.00 0.00 0.00 32 1009.7
20260506150005 63 105 0.0 0.0 0.00 0.00 0.00 36 1009.5
20260506145505 63 114 0.0 1.7 0.00 0.00 0.00 39 1009.4
20260506145008 63 123 0.0 1.7 0.00 0.00 0.00 41 1009.4
20260506144521 63 96 0.0 0.0 0.00 0.00 0.00 45 1009.5
20260506144008 64 115 0.0 4.3 0.00 0.00 0.00 51 1009.7
20260506143505 64 115 0.0 8.7 0.00 0.00 0.00 59 1009.7
20260506143013 65 115 0.0 8.7 0.00 0.00 0.00 62 1009.6
20260506142505 65 125 0.0 4.3 0.00 0.00 0.00 63 1009.6
20260506142004 66 127 0.0 12.2 0.00 0.00 0.00 66 1009.6
20260506141511 66 115 3.5 12.2 0.00 0.00 0.00 68 1009.7
20260506141003 67 132 0.9 12.2 0.00 0.00 0.00 68 1009.5
20260506140507 68 97 0.9 9.6 0.00 0.00 0.00 68 1009.4
20260506140004 68 128 1.7 11.3 0.00 0.00 0.00 68 1009.3
20260506135503 68 105 0.0 11.3 0.00 0.00 0.00 67 1009.2
20260506135008 68 83 0.0 7.0 0.00 0.00 0.00 68 1009.2
20260506134508 68 107 0.0 7.0 0.00 0.00 0.00 68 1009.3
20260506134005 67 70 0.0 7.0 0.00 0.00 0.00 68 1009.3
20260506133505 67 109 0.9 6.1 0.00 0.00 0.00 68 1009.4
20260506133011 66 129 0.0 13.0 0.00 0.00 0.00 68 1009.4
20260506132506 66 111 1.7 13.0 0.00 0.00 0.00 68 1009.2
20260506132003 66 124 0.0 8.7 0.00 0.00 0.00 68 1009.4
20260506131518 66 77 0.9 7.8 0.00 0.00 0.00 68 1009.4
20260506131004 67 117 0.0 9.6 0.00 0.00 0.00 68 1009.5
20260506130509 67 102 0.9 9.6 0.00 0.00 0.00 68 1009.6
20260506130004 67 131 0.0 7.8 0.00 0.00 0.00 68 1009.6
20260506125505 67 70 0.0 7.8 0.00 0.00 0.00 68 1009.5
20260506125003 67 126 0.0 7.0 0.00 0.00 0.00 68 1009.5
20260506124505 67 141 0.0 7.0 0.00 0.00 0.00 68 1009.5
20260506124004 66 98 0.0 13.0 0.00 0.00 0.00 68 1009.4
20260506123504 66 130 1.7 13.0 0.00 0.00 0.00 68 1009.4
20260506123007 65 134 0.0 7.8 0.00 0.00 0.00 68 1009.5
20260506122505 65 137 0.0 8.7 0.00 0.00 0.00 67 1009.3
20260506122010 65 120 0.0 8.7 0.00 0.00 0.00 67 1009.4
20260506121515 65 131 0.0 6.1 0.00 0.00 0.00 67 1009.4
20260506121008 65 133 0.0 6.1 0.00 0.00 0.00 67 1009.5
20260506120506 65 81 0.0 5.2 0.00 0.00 0.00 67 1009.5
20260506120034 65 68 0.0 5.2 0.00 0.00 0.00 67 1009.5
20260506115505 65 126 0.0 7.0 0.00 0.00 0.00 67 1009.4
20260506115005 65 101 0.0 7.8 0.00 0.00 0.00 67 1009.5
20260506114520 65 81 0.0 7.8 0.00 0.00 0.00 67 1009.5
20260506114005 65 117 0.0 4.3 0.00 0.00 0.00 67 1009.5
20260506113508 65 109 0.0 5.2 0.00 0.00 0.00 67 1009.4
20260506113003 65 101 0.0 5.2 0.00 0.00 0.00 67 1009.4
20260506112504 65 82 0.0 1.7 0.00 0.00 0.00 67 1009.4
20260506112004 65 105 0.0 7.0 0.00 0.00 0.00 66 1009.5
20260506111509 65 38 0.0 7.0 0.00 0.00 0.00 67 1009.6
20260506111006 65 135 0.0 4.3 0.00 0.00 0.00 66 1009.5
20260506110504 65 123 0.0 4.3 0.00 0.00 0.00 66 1009.4
20260506110016 65 127 0.0 3.5 0.00 0.00 0.00 66 1009.3
20260506105506 65 95 0.0 7.0 0.00 0.00 0.00 66 1009.4
20260506105007 64 114 0.0 10.4 0.00 0.00 0.00 66 1009.4
20260506104531 64 110 0.9 10.4 0.00 0.00 0.00 66 1009.3
20260506104011 64 94 0.0 5.2 0.00 0.00 0.00 65 1009.3
20260506103508 64 28 0.0 5.2 0.00 0.00 0.00 65 1009.4
20260506103038 64 116 0.0 5.2 0.00 0.00 0.00 65 1009.4
20260506102505 64 132 0.0 11.3 0.00 0.00 0.00 65 1009.3
20260506102003 64 143 0.0 11.3 0.00 0.00 0.00 65 1009.3
20260506101508 64 148 0.0 2.6 0.00 0.00 0.00 64 1009.2
20260506101004 64 134 0.0 2.6 0.00 0.00 0.00 65 1009.2
20260506100506 64 83 0.0 1.7 0.00 0.00 0.00 65 1009.3
20260506100011 64 107 0.0 2.6 0.00 0.00 0.00 65 1009.4
20260506095506 64 136 0.0 2.6 0.00 0.00 0.00 65 1009.4
20260506095008 64 122 0.0 0.9 0.00 0.00 0.00 65 1009.4
20260506094520 65 127 0.0 5.2 0.00 0.00 0.00 65 1009.3
20260506094007 65 101 0.0 5.2 0.00 0.00 0.00 65 1009.3
20260506093502 65 103 0.0 1.7 0.00 0.00 0.00 65 1009.3
20260506093003 64 105 0.0 1.7 0.00 0.00 0.00 65 1009.2
20260506092503 65 155 0.0 3.5 0.00 0.00 0.00 65 1009.2
20260506092003 65 175 0.0 3.5 0.00 0.00 0.00 65 1009.3
20260506091508 65 127 0.0 3.5 0.00 0.00 0.00 65 1009.3
20260506091003 65 87 0.0 6.1 0.00 0.00 0.00 65 1009.2
20260506090502 65 91 0.0 6.1 0.00 0.00 0.00 65 1009.3
20260506090007 65 117 0.0 3.5 0.00 0.00 0.00 64 1009.4
20260506085503 64 114 0.0 2.6 0.00 0.00 0.00 64 1009.4
20260506085003 65 113 0.0 0.0 0.00 0.00 0.00 64 1009.4
20260506084528 65 199 0.0 0.0 0.00 0.00 0.00 64 1009.4
20260506084010 65 132 0.0 4.3 0.00 0.00 0.00 65 1009.4
20260506083508 65 124 0.0 4.3 0.00 0.00 0.00 65 1009.5
20260506083021 65 129 0.0 0.0 0.00 0.00 0.00 65 1009.5
20260506082502 65 108 0.0 7.0 0.00 0.00 0.00 66 1009.5
20260506082002 65 127 0.0 7.0 0.00 0.00 0.00 66 1009.5
20260506081503 65 107 0.0 2.6 0.00 0.00 0.00 66 1009.5
20260506081008 65 127 0.0 2.6 0.00 0.00 0.00 66 1009.5
20260506080504 65 150 0.0 4.3 0.00 0.00 0.00 66 1009.4
20260506073504 66 131 0.9 7.0 0.00 0.00 0.00 67 1009.4
20260506073019 66 111 0.0 7.8 0.00 0.00 0.00 67 1009.5
20260506072508 66 56 0.0 7.8 0.00 0.00 0.00 67 1009.6
20260506072010 66 124 0.0 7.0 0.00 0.00 0.00 68 1009.6
20260506071521 67 118 0.0 12.2 0.00 0.00 0.00 67 1009.6
20260506071003 67 131 1.7 12.2 0.00 0.00 0.00 67 1009.6
20260506070503 67 120 0.0 8.7 0.00 0.00 0.00 67 1009.6
20260506062507 67 84 0.0 7.0 0.00 0.00 0.00 67 1010.0
20260506062007 67 89 0.0 4.3 0.00 0.00 0.00 67 1009.9
20260506061516 67 122 0.0 7.0 0.00 0.00 0.00 67 1010.0
20260506061009 67 78 0.0 7.0 0.00 0.00 0.00 67 1009.9
20260506060510 67 138 0.9 7.0 0.00 0.00 0.00 66 1009.9
20260506051006 68 120 0.0 7.8 0.00 0.00 0.00 65 1010.4
20260506050508 67 123 0.0 3.5 0.00 0.00 0.00 65 1010.4
20260506045010 68 103 0.0 8.7 0.00 0.00 0.00 64 1010.4
20260506044523 68 115 0.9 8.7 0.00 0.00 0.00 64 1010.5
20260506044007 68 98 0.0 4.3 0.00 0.00 0.00 64 1010.6
20260506043505 68 124 0.0 7.0 0.00 0.00 0.00 64 1010.4
20260506043007 68 134 0.0 11.3 0.00 0.00 0.00 63 1010.5
20260506042504 68 143 0.0 11.3 0.00 0.00 0.00 63 1010.4
20260506042006 68 123 0.0 8.7 0.00 0.00 0.00 63 1010.4
20260506041511 68 114 0.0 8.7 0.00 0.00 0.00 63 1010.3
20260506041006 68 117 0.0 2.6 0.00 0.00 0.00 63 1010.4
20260506040505 68 122 0.0 3.5 0.00 0.00 0.00 64 1010.4
20260506040018 68 110 0.0 3.5 0.00 0.00 0.00 63 1010.4
20260506035506 68 120 0.0 4.3 0.00 0.00 0.00 63 1010.4
20260506035010 68 108 0.0 4.3 0.00 0.00 0.00 63 1010.3
20260506034522 68 75 0.0 4.3 0.00 0.00 0.00 63 1010.4
20260506034010 68 128 0.0 2.6 0.00 0.00 0.00 63 1010.3
20260506033507 68 136 0.0 7.0 0.00 0.00 0.00 63 1010.3
20260506033024 68 174 0.0 7.0 0.00 0.00 0.00 63 1010.2
20260506032510 68 136 0.0 3.5 0.00 0.00 0.00 63 1010.2
20260506032006 68 127 0.0 3.5 0.00 0.00 0.00 63 1010.2
20260506031509 68 75 0.0 1.7 0.00 0.00 0.00 62 1010.2
20260506031003 68 112 0.0 1.7 0.00 0.00 0.00 61 1010.2
20260506030504 69 122 0.0 2.6 0.00 0.00 0.00 61 1010.2
20260506030014 69 114 0.0 4.3 0.00 0.00 0.00 61 1010.3
20260506025507 69 20 0.0 5.2 0.00 0.00 0.00 60 1010.2
20260506025008 69 195 0.0 5.2 0.00 0.00 0.00 60 1010.3
20260506024516 69 129 0.0 5.2 0.00 0.00 0.00 59 1010.3
20260506024008 70 89 0.0 6.1 0.00 0.00 0.00 59 1010.4
20260506023507 70 114 0.0 6.1 0.00 0.00 0.00 58 1010.3
20260506023043 70 79 0.0 5.2 0.00 0.00 0.00 57 1010.4
20260506022509 70 65 0.0 5.2 0.00 0.00 0.00 56 1010.3
20260506022012 70 83 0.0 8.7 0.00 0.00 0.00 55 1010.4
20260506021533 71 127 0.9 8.7 0.00 0.00 0.00 55 1010.3
20260506021011 71 98 0.0 2.6 0.00 0.00 0.00 54 1010.3
20260506020504 71 128 0.0 0.9 0.00 0.00 0.00 53 1010.2
20260506020013 71 115 0.0 0.9 0.00 0.00 0.00 51 1010.3
20260506015504 72 64 0.0 0.9 0.00 0.00 0.00 51 1010.2
20260506015004 72 122 0.0 4.3 0.00 0.00 0.00 49 1010.2
20260506014518 73 77 0.0 7.8 0.00 0.00 0.00 48 1010.2
20260506014004 73 115 0.0 7.8 0.00 0.00 0.00 48 1010.1
20260506013508 73 101 0.0 8.7 0.00 0.00 0.00 48 1010.0
20260506013027 73 97 0.9 8.7 0.00 0.00 0.00 47 1009.9
20260506012509 73 132 0.0 13.0 0.00 0.00 0.00 47 1010.0
20260506012009 73 64 0.9 13.0 0.00 0.00 0.00 46 1009.8
20260506011524 73 108 0.0 9.6 0.00 0.00 0.00 46 1009.8
20260506011009 74 119 0.0 7.8 0.00 0.00 0.00 46 1009.8
20260506010509 74 120 0.0 6.1 0.00 0.00 0.00 46 1009.7
20260506010024 74 94 0.0 6.1 0.00 0.00 0.00 45 1009.7
20260506005508 74 124 0.0 13.9 0.00 0.00 0.00 44 1009.6
20260506005004 74 82 0.0 13.9 0.00 0.00 0.00 44 1009.6
20260506004513 74 139 0.0 11.3 0.00 0.00 0.00 45 1009.5
20260506004004 75 108 0.9 11.3 0.00 0.00 0.00 44 1009.4
20260506003507 75 67 0.9 9.6 0.00 0.00 0.00 44 1009.4
20260506003018 75 100 0.9 7.0 0.00 0.00 0.00 45 1009.3
20260506002507 75 129 0.0 6.1 0.00 0.00 0.00 45 1009.3
20260506002009 75 127 0.0 6.1 0.00 0.00 0.00 45 1009.3
20260506001520 75 113 0.0 3.5 0.00 0.00 0.00 45 1009.3
20260506001008 75 117 0.0 7.0 0.00 0.00 0.00 45 1009.2
20260506000509 76 116 0.0 7.0 0.00 0.00 0.00 45 1009.2
20260506000025 76 120 0.0 7.0 0.00 0.00 0.00 44 1009.1
20260505235511 75 137 0.0 3.5 0.00 0.00 0.00 45 1009.0
20260505235009 76 131 0.0 5.2 0.00 0.00 0.00 45 1008.9
20260505234527 76 83 0.0 5.2 0.00 0.00 0.00 44 1009.0
20260505234004 76 124 0.0 5.2 0.00 0.00 0.00 43 1009.0
20260505233508 77 129 0.0 7.0 0.00 0.00 0.00 43 1008.9
20260505233012 77 125 0.0 7.0 0.00 0.00 0.00 42 1008.9
20260505232504 77 97 0.0 7.0 0.00 0.00 0.00 41 1008.9
20260505232006 78 138 0.0 5.2 0.00 0.00 0.00 39 1008.8
20260505231503 78 117 0.0 10.4 0.00 0.00 0.00 38 1008.8
20260505231002 78 141 0.9 10.4 0.00 0.00 0.00 37 1008.6
20260505230502 79 134 0.9 13.0 0.00 0.00 0.00 36 1008.7
20260505230003 79 136 1.7 14.8 0.00 0.00 0.00 36 1008.7
20260505225504 79 147 0.9 14.8 0.00 0.00 0.00 36 1008.7
20260505225004 79 125 0.0 11.3 0.00 0.00 0.00 36 1008.6
20260505224510 80 110 0.0 15.6 0.00 0.00 0.00 35 1008.6
20260505224004 80 98 1.7 15.6 0.00 0.00 0.00 34 1008.5
20260505223505 80 163 0.9 12.2 0.00 0.00 0.00 34 1008.5
20260505223011 80 107 0.9 15.6 0.00 0.00 0.00 34 1008.5
20260505222503 81 124 3.5 15.6 0.00 0.00 0.00 33 1008.5